YAOGAN 32 2A (49383 NORAD) Tracking and Keplerian Element Data

This shows tracking and keplerian element data for the satellite.

Feedback or suggestion? Click here.




ElementValue
Catalog49383
NameYAOGAN 32 2A
Epoch Orbit1075
Epoch Day16.07984914
Epoch Year2022
RAAN144.7153
Inclination98.0977
Eccentricity0.0001136
Argument of Perigee101.6439
Mean Anonmoly258.4888
Mean Motion14.59224712
Decay Rate1.82E-06
L11 49383U 21099A 22016.07984914 .00000182 00000+0 48153-4 0 9996
L22 49383 98.0977 144.7153 0001136 101.6439 258.4888 14.59224712 10752

Live tracking and technical data element details for YAOGAN 32 2A (NORAD 49383). YAOGAN 32 2A can be tracked NOW for your location showing map with azimuth and elevation plus other details from your city location.

Track the satellite on the map from your city or location and see movement details for azimuth, elevation, latitude, longitude, range, height, and movement on the map or in text.







IsCatalogInMostPopularTable: catalog: 49383, numindb: 7
Update: records affected: 1



GetName: 49383 YAOGAN 32 2A

Hit Count: updated at: Thu, 20 Jan 2022 17:19:23 GMT